Tracking 33165 objects as of 7-Feb-2026
HD Live streaming from Space Station
objects crossing your sky now

AMC-5 (GE-5)

Track AMC-5 (GE-5) now!
AMC-5 (GE-5) is classified as:


NORAD ID: 25516
Int'l Code: 1998-063B
Perigee: 36,046.8 km
Apogee: 36,068.9 km
Inclination: 11.2 °
Period: 1,449.6 minutes
Semi major axis: 42428 km
RCS: 9.3322 m2 (large)
Launch date: October 28, 1998
Source: SOCIETE EUROPEENNE DES SATELLITES (SES)
Launch site: FRENCH GUIANA (FRGUI)

Broadband internet, business television; 16 Ku-band; CONUS
Your satellite tracking list
Your tracking list is empty




NASA's NSSDC Master Catalog

Two Line Element Set (TLE):
1 25516U 98063B   26038.30172179 -.00000189  00000-0  00000+0 0  9992
2 25516  11.1861  41.2864 0002595 303.3202  73.4935  0.99336970 99542
Source of the keplerian elements: AFSPC